• In Belarus
  • List of Countries
  • For 7 days
  • Water Temperature
  • Weather Map
  • Weather Widgets
  • user-avatar
    Login

    Hourly Weather Peristerion

    Today, 18 February, Tuesday

    Time Temperature Precipitation Wind Pressure Humidity
    00:00 +8°C° 0 mm 2 mps 761 mmHg 70%
    01:00 +8°C° 0 mm 2 mps 760 mmHg 70%
    02:00 +8°C° 0 mm 2 mps 760 mmHg 70%
    03:00 +8°C° 0 mm 2 mps 760 mmHg 69%
    04:00 +7°C° 0 mm 2 mps 760 mmHg 68%
    05:00 +7°C° 0 mm 2 mps 759 mmHg 68%
    06:00 +7°C° 0 mm 2 mps 759 mmHg 68%
    07:00 +8°C° 0 mm 2 mps 759 mmHg 68%
    08:00 +9°C° 0 mm 1 mps 759 mmHg 68%
    09:00 +10°C° 0 mm 1 mps 759 mmHg 61%
    10:00 +12°C° 0 mm 1 mps 759 mmHg 54%
    11:00 +14°C° 0 mm 1 mps 760 mmHg 47%
    12:00 +14°C° 0 mm 1 mps 759 mmHg 46%
    13:00 +15°C° 0 mm 1 mps 759 mmHg 45%
    14:00 +16°C° 0 mm 1 mps 759 mmHg 44%
    15:00 +15°C° 0 mm 2 mps 758 mmHg 46%
    16:00 +15°C° 0 mm 2 mps 758 mmHg 48%
    17:00 +15°C° 0 mm 2 mps 758 mmHg 51%
    18:00 +14°C° 0 mm 1 mps 758 mmHg 55%
    19:00 +13°C° 0 mm 1 mps 759 mmHg 60%
    20:00 +12°C° 0 mm 1 mps 759 mmHg 64%
    21:00 +11°C° 0 mm 1 mps 759 mmHg 65%
    22:00 +11°C° 0 mm 1 mps 759 mmHg 65%
    23:00 +10°C° 0 mm 0 mps 759 mmHg 66%

    Tomorrow, 19 February, Wednesday

    Time Temperature Precipitation Wind Pressure Humidity
    00:00 +10°C° 0 mm 0 mps 759 mmHg 67%
    01:00 +9°C° 0 mm 0 mps 759 mmHg 68%
    02:00 +9°C° 0 mm 0 mps 759 mmHg 69%
    03:00 +10°C° 0 mm 1 mps 759 mmHg 70%
    04:00 +10°C° 0 mm 1 mps 758 mmHg 71%
    05:00 +9°C° 0 mm 1 mps 758 mmHg 73%
    06:00 +10°C° 0 mm 1 mps 758 mmHg 73%
    07:00 +10°C° 0 mm 1 mps 758 mmHg 73%
    08:00 +10°C° 0 mm 1 mps 758 mmHg 73%
    09:00 +11°C° 0 mm 1 mps 759 mmHg 67%
    10:00 +13°C° 0 mm 1 mps 759 mmHg 61%
    11:00 +14°C° 0 mm 1 mps 759 mmHg 56%
    12:00 +15°C° 0 mm 1 mps 758 mmHg 55%
    13:00 +15°C° 0 mm 2 mps 758 mmHg 55%
    14:00 +16°C° 0 mm 2 mps 757 mmHg 54%
    15:00 +15°C° 0 mm 2 mps 757 mmHg 56%
    16:00 +14°C° 0 mm 3 mps 757 mmHg 59%
    17:00 +14°C° 0 mm 3 mps 756 mmHg 61%
    18:00 +14°C° 0 mm 2 mps 756 mmHg 65%
    19:00 +13°C° 0 mm 2 mps 756 mmHg 69%
    20:00 +12°C° 0 mm 2 mps 756 mmHg 74%
    21:00 +12°C° 0 mm 1 mps 756 mmHg 74%
    22:00 +12°C° 0 mm 1 mps 756 mmHg 74%
    23:00 +13°C° 0 mm 1 mps 755 mmHg 74%

    Day after tomorrow, 20 February, Thursday

    Time Temperature Precipitation Wind Pressure Humidity
    00:00 +12°C° 0 mm 1 mps 755 mmHg 77%
    01:00 +12°C° 0 mm 1 mps 755 mmHg 79%
    02:00 +10°C° 0 mm 2 mps 755 mmHg 81%
    03:00 +10°C° 0 mm 2 mps 754 mmHg 82%
    04:00 +10°C° 0 mm 2 mps 754 mmHg 83%
    05:00 +10°C° 0 mm 2 mps 754 mmHg 83%
    06:00 +10°C° 0 mm 2 mps 753 mmHg 83%
    07:00 +10°C° 0 mm 2 mps 753 mmHg 82%
    08:00 +12°C° 0 mm 2 mps 753 mmHg 82%
    09:00 +13°C° 0.1 mm 2 mps 753 mmHg 75%
    10:00 +14°C° 0.1 mm 3 mps 753 mmHg 68%
    11:00 +16°C° 0.1 mm 3 mps 753 mmHg 62%
    12:00 +15°C° 0.5 mm 4 mps 753 mmHg 61%
    13:00 +15°C° 0.5 mm 4 mps 753 mmHg 59%
    14:00 +15°C° 0.5 mm 5 mps 752 mmHg 58%
    15:00 +14°C° 0.4 mm 6 mps 753 mmHg 62%
    16:00 +11°C° 0.4 mm 7 mps 753 mmHg 65%
    17:00 +10°C° 0.4 mm 7 mps 753 mmHg 68%
    18:00 +9°C° 0 mm 8 mps 753 mmHg 70%
    19:00 +8°C° 0 mm 9 mps 754 mmHg 71%
    20:00 +7°C° 0 mm 10 mps 755 mmHg 73%
    21:00 +7°C° 0 mm 9 mps 755 mmHg 72%
    22:00 +7°C° 0 mm 9 mps 756 mmHg 72%
    23:00 +6°C° 0 mm 9 mps 756 mmHg 71%

    21 February, Friday

    Time Temperature Precipitation Wind Pressure Humidity
    00:00 +6°C° 0 mm 9 mps 756 mmHg 71%
    01:00 +6°C° 0 mm 9 mps 757 mmHg 70%
    02:00 +5°C° 0 mm 9 mps 757 mmHg 69%
    03:00 +5°C° 0 mm 9 mps 757 mmHg 72%
    04:00 +5°C° 0 mm 9 mps 757 mmHg 74%
    05:00 +5°C° 0 mm 9 mps 758 mmHg 77%
    06:00 +5°C° 0.1 mm 8 mps 758 mmHg 77%
    07:00 +5°C° 0.1 mm 8 mps 759 mmHg 78%
    08:00 +5°C° 0.1 mm 8 mps 759 mmHg 79%
    15:00 +8°C° 0 mm 9 mps 761 mmHg 66%
    16:00 +8°C° 0 mm 9 mps 761 mmHg 65%
    17:00 +8°C° 0 mm 9 mps 761 mmHg 64%
    18:00 +7°C° 0 mm 8 mps 762 mmHg 66%
    19:00 +8°C° 0 mm 7 mps 762 mmHg 68%
    20:00 +7°C° 0 mm 6 mps 762 mmHg 70%
    21:00 +7°C° 0 mm 5 mps 763 mmHg 70%
    22:00 +6°C° 0 mm 5 mps 763 mmHg 70%
    23:00 +6°C° 0 mm 4 mps 763 mmHg 71%

    22 February, Saturday

    Time Temperature Precipitation Wind Pressure Humidity
    00:00 +6°C° 0 mm 4 mps 764 mmHg 71%
    01:00 +6°C° 0 mm 4 mps 764 mmHg 71%
    02:00 +6°C° 0 mm 4 mps 764 mmHg 72%
    03:00 +5°C° 0 mm 4 mps 764 mmHg 72%
    04:00 +5°C° 0 mm 4 mps 764 mmHg 72%
    05:00 +5°C° 0 mm 4 mps 764 mmHg 73%
    06:00 +5°C° 0 mm 4 mps 764 mmHg 71%
    07:00 +6°C° 0 mm 4 mps 764 mmHg 70%
    08:00 +6°C° 0 mm 4 mps 764 mmHg 68%
    09:00 +8°C° 0 mm 4 mps 764 mmHg 61%
    10:00 +10°C° 0 mm 4 mps 764 mmHg 53%
    11:00 +12°C° 0 mm 5 mps 765 mmHg 46%
    12:00 +11°C° 0 mm 7 mps 764 mmHg 44%
    13:00 +12°C° 0 mm 9 mps 764 mmHg 42%
    14:00 +12°C° 0 mm 11 mps 764 mmHg 40%
    15:00 +11°C° 0 mm 10 mps 764 mmHg 41%
    16:00 +11°C° 0 mm 9 mps 764 mmHg 42%
    17:00 +10°C° 0 mm 8 mps 764 mmHg 43%
    18:00 +9°C° 0 mm 7 mps 764 mmHg 45%
    19:00 +8°C° 0 mm 5 mps 765 mmHg 48%
    20:00 +7°C° 0 mm 4 mps 765 mmHg 51%
    21:00 +7°C° 0 mm 4 mps 765 mmHg 53%
    22:00 +7°C° 0 mm 4 mps 765 mmHg 55%
    23:00 +7°C° 0 mm 4 mps 766 mmHg 57%

    23 February, Sunday

    Time Temperature Precipitation Wind Pressure Humidity
    00:00 +7°C° 0 mm 4 mps 766 mmHg 60%
    01:00 +6°C° 0 mm 4 mps 766 mmHg 64%
    02:00 +6°C° 0 mm 4 mps 766 mmHg 67%
    03:00 +6°C° 0 mm 4 mps 765 mmHg 67%
    04:00 +6°C° 0 mm 4 mps 765 mmHg 68%
    05:00 +6°C° 0 mm 4 mps 765 mmHg 68%
    06:00 +6°C° 0 mm 4 mps 765 mmHg 68%
    07:00 +6°C° 0 mm 4 mps 765 mmHg 67%
    08:00 +6°C° 0 mm 4 mps 765 mmHg 67%
    09:00 +7°C° 0 mm 4 mps 765 mmHg 61%
    10:00 +10°C° 0 mm 4 mps 766 mmHg 54%
    11:00 +12°C° 0 mm 5 mps 766 mmHg 47%
    12:00 +12°C° 0 mm 5 mps 765 mmHg 44%
    13:00 +13°C° 0 mm 5 mps 765 mmHg 41%
    14:00 +14°C° 0 mm 6 mps 764 mmHg 37%
    15:00 +14°C° 0 mm 5 mps 764 mmHg 38%
    16:00 +13°C° 0 mm 5 mps 764 mmHg 39%
    17:00 +13°C° 0 mm 4 mps 763 mmHg 40%
    18:00 +12°C° 0 mm 4 mps 763 mmHg 44%
    19:00 +11°C° 0 mm 3 mps 763 mmHg 47%
    20:00 +10°C° 0 mm 3 mps 763 mmHg 50%
    21:00 +10°C° 0 mm 3 mps 763 mmHg 50%
    22:00 +10°C° 0 mm 3 mps 763 mmHg 51%
    23:00 +10°C° 0 mm 3 mps 763 mmHg 52%
    Show more